THORAD AGENA D DEB, 5000

Orbit data source: Space-Track

THORAD AGENA D DEB, 5000 is space debris in SSO originally from a launch on Wed, 08 Apr 1970 UTC launched from the Air Force Western Test Range (AFWTR). Debris objects in space refer to the collection of defunct objects orbiting the Earth. Examples of debris include non-operational satellites, rocket bodies, and fragments generated from explosions, collisions, or faulty payload assembly.

Loading next visibility...
Identifier
5000, 1970-025HW
Orbit
SSO
Country
Flag of USUS
Related business
Manufacturer
Unknown
Mission
Spacecraft
Bus & Motor
Unknown
Mass
Unknown
Launch date (UTC)
1970-04-08 (56 years ago)
Launch vehicle
Unknown
Launch site
Air Force Western Test Range (AFWTR)
Object type
Payload
Rocket body
Debris
Shape & HBR
Unknown shape, 0.1 m
Radar Cross Section
Medium (>0.1 m² and <1 m²)

Expand to show TLE details & history
Last TLE update: 23 hours ago

TLE from 23 hours ago
0 THORAD AGENA D DEB
1 05000U 70025HW  26255.63502642  .00000525  00000-0  17215-2 0  9997
2 05000  99.7803 132.2377 0488635 129.7240 263.5847 12.70713606602777
Epoch: 2026-09-12T15:14Z
TLE epoch observation values (Epoch: 2026-09-12T15:14:26.282Z)
Latitude
27.39003°
Longitude
-93.11187°
Altitude
1,442.67 km
Speed
7.115 km/s
True Right ascension
08h 28m 33s
True Declination
27° 15' 44"
Sunlit
Object was in daylight at epoch
Visualization orbit readout
Latitude
Unknown
Longitude
Unknown
Altitude
Unknown
Speed
Unknown
Apparent Right ascension
Unknown
Apparent Declination
Unknown
Sunlit
N/A
Visualization observer readout
Local Sidereal Time
06:51:19
Azimuth
Unknown
Elevation
Unknown
Doppler factor
Unknown
Orbital elements
Apogee altitude
1,755.353 km
Perigee altitude
997.522 km
Semi-major axis
7,754.574 km
Eccentricity
0.04886
Inclination
99.7803°
RAAN
132.2377°
Arg. of periapsis
129.724°
True anomaly
258.06668°
Mean anomaly
263.5847°
Eccentric anomaly
260.82088°
Mean motion
3.17838 °/min
Orbital period
113.27 mins
BSTAR
0.0017215
Loading maneuver chart data...
Computing Atmospheric mass density...

Documentation

Showing up to 5 results
|